{"data":{"norad_id":41773,"intl_designator":"2016-058D","name":"SKYSAT-C2","alt_names":[],"object_type":"PAYLOAD","status":"ACTIVE","operator":null,"country":"US","launch_date":"2016-09-16","launch_site_code":"FRGUI","launch_vehicle":null,"mission":null,"orbit_class":"UNKNOWN","rcs_meters":0.339,"size_class":null,"mass_kg":null,"dimensions":null,"purposes":["earth_obs"],"wikipedia_slug":null,"has_3d_model":false,"image_url":null,"decayed_at":null,"tle_current":{"epoch":"2026-09-20T00:05:59.881920Z","epoch_age_seconds":57243,"freshness":"FRESH","line1":"1 41773U 16058D   26263.00416530  .00008526  00000+0  18903-3 0  9994","line2":"2 41773  97.0153 281.6442 0004916  76.7788 283.4009 15.43966626559675","mean_motion":15.43966626,"eccentricity":0.0004916,"inclination_deg":97.0153,"raan_deg":281.6442,"arg_perigee_deg":76.7788,"mean_anomaly_deg":283.4009,"bstar":0.00018903,"rev_number":55967,"period_min":93.266264681553,"perigee_km":431.06707940004,"apogee_km":437.76518163796,"semimajor_km":6812.553130519,"source":"CELESTRAK","updated_at":"2026-09-20T09:00:34.707676Z"}}}